Location: ??????
(42.0089°N, 44.3281°E)
Time: 10:10:49
(UTC+00:00)

CZ-2C R/B - Pass Details

Date: 04 June 2022
Orbit: 785 x 869 km, 98.2° (Epoch: 30 June)

Event Time Altitude Azimuth Distance (km) Brightness Sun altitude
Rises 00:35:20 0° 135° (SE) 3,290 5.8 -8.8°
Reaches altitude 10° 00:37:54 10° 124° (SE) 2,374 5.3 -8.4°
Maximum altitude 00:42:21 29° 66° (ENE) 1,457 4.9 -7.8°
Drops below altitude 10° 00:46:54 10° 8° (N) 2,432 5.9 -7.1°
Sets 00:49:33 0° 358° (N) 3,384 6.4 -6.7°
